Total_Precipitation_Accumulation
0.00 0.00 0.01 0.01 0.01 0.02 0.02 0.05 0.12 0.19 0.13 0.13 0.23 0.43 0.50 0.56 0.63 0.82 0.98 0.98 1.05 1.16 1.51 1.95 2.42 2.93 3.57 4.42 5.30 5.57 5.22 4.64 4.11 3.60 2.99 2.50 2.18 1.97 1.91 1.64 1.33 1.23 1.21 1.19
0.01 0.02 0.02 0.02 0.02 0.04 0.05 0.07 0.12 0.16 0.11 0.13 0.20 0.42 0.60 0.71 0.84 0.83 0.88 0.98 0.96 1.17 1.57 2.06 2.62 3.04 3.38 3.89 4.61 4.77 4.32 3.68 3.05 2.63 2.36 2.14 1.97 1.65 1.46 1.41 1.25 1.04 1.05 1.07
0.01 0.03 0.02 0.02 0.02 0.05 0.07 0.08 0.12 0.15 0.08 0.13 0.20 0.49 0.77 0.89 0.75 0.62 0.55 0.66 0.71 0.90 1.40 2.11 2.61 2.89 3.17 3.35 3.32 3.34 3.10 2.58 2.24 2.06 1.93 1.83 1.81 1.57 1.29 1.16 1.00 0.85 0.82 0.83
0.01 0.02 0.01 0.02 0.03 0.04 0.07 0.05 0.05 0.05 0.06 0.20 0.30 0.76 1.00 0.90 0.75 0.61 0.48 0.48 0.52 0.76 1.23 1.96 2.23 2.30 2.38 2.48 2.27 2.20 2.21 2.03 1.93 1.80 1.66 1.47 1.24 1.11 1.00 0.96 0.89 0.81 0.73 0.70
0.02 0.02 0.02 0.02 0.03 0.04 0.05 0.04 0.04 0.07 0.11 0.25 0.43 0.73 1.02 0.85 0.80 0.61 0.45 0.41 0.48 0.62 0.91 1.25 1.29 1.39 1.49 1.59 1.59 1.68 1.89 1.91 1.80 1.73 1.73 1.65 1.31 1.08 1.00 0.97 0.96 0.86 0.78 0.71
0.04 0.04 0.03 0.03 0.02 0.03 0.04 0.05 0.11 0.23 0.34 0.66 0.67 0.73 1.05 0.89 0.69 0.47 0.38 0.41 0.37 0.43 0.60 0.80 0.85 0.88 0.96 1.02 1.09 1.24 1.61 1.75 1.67 1.61 1.59 1.50 1.37 1.25 1.08 0.92 0.85 0.80 0.78 0.78
0.10 0.08 0.08 0.06 0.05 0.06 0.05 0.09 0.26 0.60 1.00 1.12 0.69 0.71 1.00 0.64 0.43 0.32 0.26 0.28 0.32 0.41 0.50 0.63 0.78 0.80 0.74 0.72 0.79 0.92 1.13 1.24 1.28 1.36 1.43 1.43 1.45 1.36 1.16 1.01 0.85 0.78 0.72 0.70
0.14 0.15 0.11 0.07 0.05 0.06 0.07 0.09 0.18 0.36 0.46 0.59 0.59 0.97 1.08 0.55 0.36 0.26 0.19 0.20 0.28 0.33 0.36 0.40 0.50 0.50 0.49 0.55 0.57 0.65 0.78 0.87 0.97 1.06 1.17 1.26 1.26 1.20 1.06 1.05 0.93 0.79 0.70 0.70
0.06 0.06 0.04 0.04 0.06 0.06 0.06 0.06 0.07 0.08 0.14 0.35 0.65 0.87 0.76 0.48 0.32 0.22 0.17 0.14 0.17 0.19 0.19 0.21 0.22 0.24 0.27 0.37 0.49 0.57 0.65 0.71 0.78 0.85 0.98 1.07 1.09 1.06 1.04 1.03 0.91 0.82 0.83 0.80
0.03 0.03 0.03 0.04 0.05 0.07 0.07 0.06 0.06 0.05 0.15 0.33 0.58 0.87 0.88 0.58 0.39 0.27 0.18 0.15 0.15 0.15 0.14 0.14 0.14 0.14 0.15 0.18 0.33 0.49 0.55 0.66 0.77 0.81 0.81 0.82 0.96 0.97 0.98 0.94 0.85 0.88 0.88 0.83
0.02 0.02 0.02 0.03 0.05 0.07 0.06 0.06 0.06 0.06 0.08 0.19 0.44 0.65 0.54 0.39 0.24 0.21 0.17 0.14 0.15 0.16 0.15 0.13 0.12 0.11 0.13 0.14 0.23 0.35 0.44 0.54 0.62 0.65 0.68 0.79 0.88 0.88 0.86 0.87 0.81 0.82 0.81 0.81
0.03 0.02 0.02 0.06 0.07 0.07 0.06 0.06 0.07 0.09 0.09 0.13 0.24 0.33 0.26 0.25 0.21 0.19 0.18 0.17 0.20 0.21 0.19 0.17 0.14 0.10 0.11 0.14 0.17 0.26 0.30 0.32 0.36 0.44 0.52 0.63 0.77 0.76 0.76 0.78 0.85 0.86 0.82 0.75
0.03 0.02 0.04 0.14 0.20 0.15 0.08 0.06 0.09 0.10 0.10 0.12 0.27 0.40 0.26 0.22 0.25 0.27 0.23 0.26 0.25 0.22 0.20 0.20 0.18 0.13 0.11 0.13 0.16 0.20 0.22 0.26 0.29 0.34 0.40 0.50 0.64 0.72 0.75 0.77 0.82 0.87 0.86 0.81
0.05 0.04 0.05 0.16 0.22 0.22 0.17 0.13 0.12 0.12 0.12 0.11 0.19 0.35 0.28 0.25 0.32 0.31 0.24 0.27 0.27 0.23 0.23 0.27 0.27 0.18 0.15 0.16 0.18 0.21 0.23 0.27 0.29 0.34 0.42 0.49 0.58 0.70 0.78 0.80 0.82 0.85 0.90 0.88
0.06 0.06 0.05 0.05 0.10 0.16 0.19 0.15 0.13 0.10 0.10 0.12 0.14 0.23 0.29 0.40 0.39 0.31 0.31 0.34 0.28 0.30 0.27 0.24 0.27 0.20 0.18 0.18 0.21 0.22 0.25 0.28 0.31 0.36 0.43 0.49 0.58 0.64 0.70 0.78 0.84 0.90 0.93 0.90
0.09 0.08 0.07 0.06 0.10 0.12 0.13 0.16 0.12 0.08 0.07 0.08 0.11 0.20 0.30 0.35 0.40 0.38 0.31 0.29 0.34 0.39 0.31 0.31 0.34 0.29 0.25 0.23 0.23 0.22 0.27 0.35 0.42 0.50 0.54 0.54 0.61 0.68 0.69 0.74 0.78 0.89 0.94 0.99
0.16 0.16 0.16 0.15 0.15 0.15 0.16 0.15 0.11 0.09 0.10 0.11 0.12 0.18 0.27 0.37 0.42 0.45 0.44 0.37 0.38 0.49 0.47 0.55 0.60 0.49 0.37 0.32 0.31 0.31 0.36 0.43 0.50 0.58 0.70 0.73 0.76 0.81 0.83 0.87 0.89 0.95 1.09 1.16
0.25 0.26 0.23 0.21 0.24 0.28 0.18 0.14 0.13 0.11 0.13 0.14 0.18 0.25 0.31 0.43 0.49 0.54 0.62 0.59 0.52 0.48 0.51 0.58 0.62 0.62 0.56 0.51 0.48 0.49 0.53 0.59 0.70 0.81 0.91 0.99 1.03 1.11 1.18 1.23 1.20 1.23 1.30 1.37
0.27 0.36 0.34 0.32 0.38 0.32 0.24 0.21 0.20 0.21 0.25 0.27 0.36 0.49 0.55 0.58 0.68 0.78 0.71 0.62 0.58 0.58 0.57 0.68 0.65 0.63 0.63 0.72 0.72 0.70 0.72 0.77 0.92 1.06 1.16 1.21 1.26 1.34 1.40 1.39 1.46 1.56 1.67 1.70
0.32 0.34 0.43 0.39 0.44 0.45 0.40 0.36 0.35 0.42 0.68 0.58 0.63 0.65 0.60 0.61 0.81 0.79 0.61 0.55 0.56 0.56 0.64 0.71 0.75 0.72 0.77 0.91 0.92 0.92 0.99 1.07 1.09 1.11 1.19 1.34 1.50 1.60 1.59 1.61 1.74 1.92 2.07 2.05
0.55 0.55 0.51 0.46 0.48 0.44 0.44 0.42 0.49 0.81 1.05 0.89 0.83 0.78 0.73 0.80 0.83 0.81 0.66 0.54 0.53 0.53 0.58 0.66 0.71 0.75 0.78 0.89 0.99 1.13 1.27 1.29 1.28 1.31 1.37 1.45 1.61 1.75 1.77 1.83 1.88 2.02 2.14 2.15
0.75 0.77 0.74 0.69 0.77 0.75 0.51 0.55 0.81 1.00 0.85 0.89 1.00 1.03 1.01 0.94 0.82 0.71 0.62 0.56 0.50 0.48 0.48 0.55 0.67 0.74 0.79 0.91 1.11 1.24 1.35 1.43 1.49 1.55 1.70 1.72 1.77 1.76 1.72 1.84 1.93 2.01 2.12 2.10
0.86 0.87 0.87 0.89 0.95 0.84 0.67 0.73 0.72 0.70 0.80 0.87 0.93 1.06 1.07 0.97 0.98 0.84 0.74 0.69 0.60 0.53 0.51 0.55 0.63 0.73 0.79 0.86 1.02 1.27 1.34 1.38 1.45 1.55 1.64 1.74 1.76 1.79 1.78 1.85 1.94 2.06 2.09 2.06
0.87 0.81 0.89 0.99 0.99 0.90 0.83 0.82 0.75 0.69 0.72 0.78 0.87 0.92 0.94 0.91 0.99 0.94 0.79 0.66 0.59 0.54 0.49 0.52 0.61 0.71 0.75 0.71 0.77 0.91 1.01 1.08 1.16 1.26 1.34 1.39 1.48 1.58 1.73 1.90 1.93 1.97 2.04 2.09
0.86 0.82 0.92 1.12 1.20 1.21 1.11 1.00 0.95 0.85 0.84 0.89 0.91 0.92 0.91 0.79 0.79 0.82 0.71 0.59 0.51 0.46 0.41 0.45 0.55 0.58 0.60 0.65 0.63 0.66 0.74 0.93 1.04 1.08 1.13 1.24 1.37 1.48 1.64 1.81 1.89 1.81 1.82 1.95
0.94 0.90 0.91 1.09 1.12 1.28 1.32 1.15 1.02 0.93 0.95 0.98 0.96 0.88 0.82 0.71 0.64 0.56 0.48 0.42 0.41 0.38 0.39 0.44 0.50 0.50 0.50 0.56 0.58 0.59 0.69 0.88 1.01 1.04 1.04 1.09 1.13 1.25 1.38 1.52 1.60 1.53 1.34 1.35